Weather History for Barking Sands, HI

Change the Weather History Date:

Saturday, December 14, 2013

  Actual Average Record
Temperature  
Mean Temperature 74 °F -  
Max Temperature 81 °F 82 °F 86 °F (1970)
Min Temperature 66 °F 64 °F 57 °F (1950)
Cooling Degree Days 8    
Growing Degree Days 24 (Base 50)    
Moisture  
Dew Point 66 °F    
Average Humidity 76    
Maximum Humidity 87    
Minimum Humidity 65    
Precipitation  
Precipitation 0.00 in - - ()
Sea Level Pressure  
Sea Level Pressure 29.95 in    
Wind  
Wind Speed 4 mph (SSE)    
Max Wind Speed 12 mph    
Max Gust Speed 18 mph    
Visibility 9 miles    
Events Rain    
Averages and records for this station are not official NWS values.
T = Trace of Precipitation, MM = Missing Value Source: NWS Daily Summary

Daily Weather History Graph

Daily Weather History Graph

Search for Another Location

Airport:

Trip Planner

Search our weather history database for the weather conditions in past years. The results will help you decide how hot, cold, wet, or windy it might be!

Date:

Astronomy

Dec. 14, 2013 Rise Set
Actual Time 7:10 AM HST 5:58 PM HST
Civil Twilight 6:45 AM HST 6:22 PM HST
Nautical Twilight 6:17 AM HST 6:50 PM HST
Astronomical Twilight 5:50 AM HST 7:17 PM HST
Moon 4:18 PM HST (12/14) 4:53 AM HST (12/14)
Length of Visible Light 11h 36m
Length of Day
10h 48m
Waxing Gibbous, 94% of the Moon is Illuminated
Dec 14
Waxing Gibbous
Dec 16
Full
Dec 25
Last Quarter
Jan 1
New
Jan 7
First Quarter

Hourly Weather History & Observations

Time (HST) Temp. Heat Index Dew Point Humidity Pressure Visibility Wind Dir Wind Speed Gust Speed Precip Events Conditions
12:56 AM 68.0 °F - 64.0 °F 87% 30.00 in 10.0 mi East 3.5 mph - N/A   Clear
1:56 AM 69.1 °F - 62.1 °F 78% 29.98 in 10.0 mi ENE 3.5 mph - N/A   Clear
2:56 AM 68.0 °F - 62.1 °F 81% 29.97 in 10.0 mi ENE 4.6 mph - N/A   Clear
3:56 AM 66.9 °F - 63.0 °F 87% 29.96 in 10.0 mi Calm Calm - N/A   Clear
4:56 AM 68.0 °F - 61.0 °F 78% 29.96 in 10.0 mi SSE 3.5 mph - N/A   Clear
5:56 AM 66.0 °F - 61.0 °F 84% 29.97 in 10.0 mi Calm Calm - N/A   Clear
6:56 AM 66.0 °F - 61.0 °F 84% 29.98 in 10.0 mi East 3.5 mph - N/A   Clear
7:56 AM 68.0 °F - 62.1 °F 81% 29.99 in 10.0 mi Calm Calm - N/A   Clear
8:56 AM 73.9 °F - 64.0 °F 71% 30.00 in 10.0 mi Calm Calm - N/A   Clear
9:48 AM 77.0 °F - 66.2 °F 69% 29.99 in 5.0 mi SW 3.5 mph - N/A   Haze
9:56 AM 77.0 °F - 66.9 °F 71% 30.00 in 4.0 mi SW 3.5 mph - N/A   Haze
10:37 AM 78.8 °F - 66.2 °F 65% 29.99 in 6.0 mi WSW 4.6 mph - N/A   Haze
10:47 AM 78.8 °F - 68.0 °F 69% 29.99 in 6.0 mi SW 5.8 mph - N/A   Haze
10:56 AM 78.1 °F - 68.0 °F 71% 29.99 in 7.0 mi Variable 3.5 mph - N/A   Overcast
11:22 AM 78.8 °F - 66.2 °F 65% 29.97 in 6.2 mi West 5.8 mph - N/A   Mostly Cloudy
11:54 AM 80.6 °F 83.2 °F 68.0 °F 65% 29.95 in 10.0 mi SSE 8.1 mph - N/A   Partly Cloudy
11:56 AM 81.0 °F 83.8 °F 68.0 °F 65% 29.96 in 10.0 mi SSE 6.9 mph - N/A   Partly Cloudy
12:56 PM 81.0 °F 84.4 °F 70.0 °F 69% 29.92 in 10.0 mi South 9.2 mph - N/A   Scattered Clouds
1:56 PM 81.0 °F 83.8 °F 68.0 °F 65% 29.89 in 10.0 mi SSE 11.5 mph 18.4 mph N/A   Clear
2:56 PM 81.0 °F 84.4 °F 70.0 °F 69% 29.90 in 10.0 mi SSE 10.4 mph 18.4 mph N/A   Scattered Clouds
3:56 PM 79.0 °F - 68.0 °F 69% 29.89 in 10.0 mi SE 10.4 mph 18.4 mph N/A   Clear
4:56 PM 78.1 °F - 68.0 °F 71% 29.89 in 10.0 mi SSE 6.9 mph - N/A   Clear
5:56 PM 77.0 °F - 68.0 °F 74% 29.91 in 10.0 mi SSE 5.8 mph - N/A   Partly Cloudy
6:56 PM 75.0 °F - 68.0 °F 79% 29.93 in 10.0 mi SSE 4.6 mph - N/A   Clear
7:49 PM 75.2 °F - 69.8 °F 83% 29.93 in 10.0 mi SE 6.9 mph - N/A   Mostly Cloudy
7:56 PM 75.0 °F - 69.1 °F 82% 29.95 in 10.0 mi SE 6.9 mph - N/A   Mostly Cloudy
8:56 PM 73.9 °F - 68.0 °F 82% 29.96 in 10.0 mi ESE 4.6 mph - N/A   Partly Cloudy
9:56 PM 75.0 °F - 69.1 °F 82% 29.96 in 10.0 mi SE 4.6 mph - 0.00 in   Clear
10:56 PM 73.9 °F - 69.1 °F 85% 29.95 in 10.0 mi SE 6.9 mph - N/A   Scattered Clouds
11:56 PM 73.9 °F - 69.1 °F 85% 29.92 in 10.0 mi ESE 6.9 mph - 0.00 in Rain Light Rain